Theta_e
291 290 290 291 292 293 292 291 290 288 289 287 285 286 291 290 286 285 289 290 288 291 291 294 293 293 291 291 292 292 290 289 288 288 287 287 286 287 288 288 288 287 287 287 286 286 286 286 286 286 286 286 285 285 285 285 284 284 285 284 283 283 283 282 282 282 280 280 279 278 276 276 275 274 274 273 273 273 272 272 272 272 271 271 271 272 272
289 290 288 290 290 289 289 290 291 291 289 288 288 288 290 290 288 291 291 290 291 294 294 293 293 294 294 293 291 289 288 289 288 288 287 287 287 287 287 288 288 288 288 287 287 286 286 286 286 285 285 285 285 285 284 285 284 284 284 284 283 283 283 283 282 281 279 278 277 276 275 274 274 273 273 272 272 272 271 271 271 271 270 271 271 271 271
287 289 287 286 287 287 286 288 290 290 289 288 288 289 290 289 289 291 289 287 288 295 296 295 292 291 290 289 289 289 290 289 288 288 287 288 288 288 288 288 288 288 288 287 287 286 286 286 286 286 286 286 286 286 285 285 285 285 284 284 283 283 283 282 281 280 278 277 277 275 275 274 273 272 272 271 271 270 270 269 269 269 269 270 270 270 270
285 284 285 285 285 285 285 286 288 286 286 284 286 286 289 287 286 288 287 285 288 292 292 291 289 290 290 290 290 289 289 289 289 288 289 289 289 288 288 288 288 288 287 287 287 286 286 286 286 286 286 286 286 286 287 286 286 285 284 284 283 283 283 281 280 279 278 276 275 274 273 272 271 271 270 269 269 269 269 269 269 269 269 269 269 269 269
284 280 284 285 283 284 282 284 287 289 288 289 289 289 290 290 290 286 284 286 293 292 290 290 288 289 291 292 291 290 290 290 289 289 290 290 290 289 289 288 288 288 288 288 288 287 287 287 287 287 287 287 286 287 287 287 286 284 284 284 284 283 282 280 279 278 277 275 274 273 272 271 270 269 268 268 268 268 268 269 268 268 269 268 268 269 268
281 277 282 283 282 276 280 286 292 293 289 290 287 287 288 290 291 289 292 292 291 289 290 291 290 289 291 292 292 293 293 290 289 290 290 290 290 290 290 289 289 289 289 288 288 288 287 287 287 288 288 287 288 288 288 287 285 284 284 283 283 283 281 279 278 277 276 274 273 272 271 270 269 268 268 268 269 269 268 268 268 268 267 267 267 267 267
277 279 280 280 275 279 283 281 283 286 294 293 290 290 292 292 292 290 287 286 287 289 290 291 293 293 290 288 290 290 290 292 291 290 289 289 290 289 289 289 289 289 289 288 288 288 288 288 288 288 287 288 288 287 286 284 284 283 283 283 282 281 279 278 277 275 274 273 272 271 269 269 268 268 268 268 267 268 268 268 268 267 267 266 266 265 266
279 277 280 273 277 283 283 282 282 285 289 291 291 289 291 292 292 291 289 290 289 289 289 287 286 288 285 286 285 286 287 289 291 289 289 289 289 288 289 289 290 289 289 289 288 288 289 288 287 287 287 287 287 286 285 283 282 282 282 282 281 279 278 277 275 275 274 273 271 270 269 268 268 268 268 267 267 268 267 267 267 266 266 266 265 265 265
277 279 279 280 284 284 285 281 282 286 287 286 286 283 287 291 290 289 289 290 288 286 285 283 283 283 285 286 288 287 286 286 289 290 290 290 289 290 290 290 289 290 290 289 289 288 287 287 286 286 286 286 285 283 282 282 281 281 281 280 279 278 277 276 274 274 273 272 271 270 269 268 267 268 268 267 267 267 266 267 267 266 265 265 265 264 264
281 278 276 277 279 276 283 286 286 288 285 290 288 286 285 283 286 288 289 288 288 285 283 283 282 284 285 285 287 288 285 286 286 288 287 287 287 288 287 287 287 287 287 287 287 287 286 286 286 285 285 284 283 281 280 280 279 279 279 279 279 277 277 276 274 274 273 272 270 269 268 267 267 268 268 268 266 266 266 266 266 265 264 264 264 263 263
280 279 277 278 276 280 285 285 281 282 282 286 286 284 280 285 281 287 288 288 287 285 283 282 283 284 283 284 287 287 285 284 286 286 286 286 286 286 287 287 286 285 284 285 284 284 284 283 284 284 283 282 281 280 279 279 278 278 278 279 278 277 277 275 274 273 272 271 270 269 268 268 267 267 266 266 266 265 265 265 264 264 264 264 263 263 263
282 281 279 277 282 282 283 280 280 282 282 286 287 276 278 284 281 285 287 287 287 284 284 283 284 284 282 284 287 287 285 285 285 286 286 285 285 285 285 284 285 284 283 282 281 282 282 283 282 281 281 281 280 280 279 278 277 277 278 279 279 278 277 275 273 272 271 269 269 268 267 267 266 266 266 265 264 264 264 265 264 264 263 263 261 262 262
282 282 280 282 282 285 280 281 282 281 281 285 279 275 281 282 281 283 287 287 287 284 282 284 283 286 287 285 284 284 284 283 283 283 283 284 285 285 284 283 283 282 282 283 283 283 283 282 280 280 280 280 279 279 278 277 277 278 279 280 279 277 275 273 271 270 270 268 267 267 267 266 265 264 265 265 264 263 262 263 263 263 261 261 261 261 262
280 282 279 280 283 286 281 280 281 281 283 276 277 284 283 283 281 282 285 285 284 284 283 284 286 286 284 282 283 283 283 285 284 283 282 281 280 280 281 281 282 282 281 281 282 281 281 280 279 279 279 279 279 279 277 276 277 280 280 279 277 275 273 271 270 268 267 267 266 265 264 264 264 263 263 263 263 262 263 263 261 260 260 261 262 262 263
279 279 279 277 275 283 281 281 281 281 281 283 283 281 281 282 282 282 282 283 283 284 283 284 285 283 282 282 283 283 283 283 283 283 282 281 281 281 280 279 280 281 280 280 280 281 280 278 278 278 278 278 279 278 276 277 279 279 279 277 275 273 272 270 268 266 266 264 264 263 262 263 263 263 262 261 261 261 261 260 260 259 260 260 261 261 262
277 278 275 277 284 281 283 284 281 283 285 286 283 283 281 281 280 282 282 283 283 284 284 284 283 282 282 282 282 281 281 281 281 281 281 281 281 281 281 281 280 280 281 281 280 281 279 277 277 277 277 277 278 276 277 279 279 277 276 274 273 271 269 268 266 265 263 263 262 262 262 262 262 262 262 261 260 261 261 261 262 262 263 262 262 262 262
281 281 283 283 282 283 285 285 283 285 284 283 283 285 284 282 281 282 284 283 283 283 283 283 283 282 282 282 283 282 282 282 281 281 281 281 281 281 280 280 279 279 280 280 280 280 278 275 275 275 276 277 276 275 278 279 276 274 272 271 269 269 268 266 265 264 262 262 261 261 261 261 261 262 260 259 262 262 260 262 262 263 263 263 262 263 263
281 280 282 281 280 282 284 283 283 283 282 280 281 282 282 283 282 283 284 284 283 282 282 282 281 282 283 282 281 281 282 282 282 281 280 279 279 279 279 278 277 277 279 279 278 279 277 275 274 274 275 277 276 277 279 277 275 272 270 268 268 268 267 265 264 262 261 261 260 260 260 261 262 263 263 261 263 264 262 263 262 262 263 263 262 262 262
280 278 279 279 280 281 282 283 282 281 280 281 280 281 283 283 282 282 283 283 283 282 282 282 283 282 282 281 281 281 281 281 280 279 280 280 279 278 277 279 277 276 276 277 277 277 277 276 274 273 273 275 277 279 276 275 272 270 268 268 268 268 266 265 263 261 261 262 261 259 259 261 262 262 263 263 263 263 263 263 262 262 262 261 262 262 262
280 279 278 278 278 279 281 283 282 282 282 280 280 281 281 281 281 282 282 281 281 282 280 282 282 282 282 280 280 280 280 280 280 279 279 280 280 279 280 279 277 277 276 277 277 277 277 278 275 273 273 273 274 275 273 272 269 268 267 268 268 267 266 264 263 261 262 261 261 261 260 260 261 261 261 262 262 263 263 263 263 263 262 262 262 263 263
277 276 278 278 279 280 281 280 282 284 284 283 281 280 280 280 280 280 280 281 281 281 282 281 281 281 281 281 281 281 280 279 279 279 279 279 280 280 278 277 276 277 277 276 277 277 278 279 277 273 272 273 273 273 271 269 268 267 268 267 268 267 265 263 263 262 263 262 262 263 262 260 262 263 262 261 262 262 263 263 264 264 264 264 263 263 264
275 277 278 279 276 277 281 281 282 283 283 282 281 280 280 280 281 280 280 279 279 279 280 281 280 280 281 281 280 280 280 280 280 279 279 279 279 279 279 278 276 276 276 277 277 277 278 279 277 274 273 272 272 272 269 267 267 268 268 267 267 266 264 263 263 261 262 262 262 263 263 262 261 260 261 264 263 262 262 263 265 267 266 264 264 264 264
276 280 280 281 283 282 283 284 285 283 282 282 281 281 281 281 282 281 281 280 279 278 278 279 280 280 281 281 280 279 279 280 280 280 280 279 279 279 278 276 274 274 276 276 276 276 277 277 276 274 273 272 271 269 268 266 266 268 268 267 267 266 263 263 262 261 262 262 262 262 262 262 262 262 262 263 266 268 267 266 267 268 269 270 270 270 266
280 282 281 281 281 281 282 281 282 283 282 282 282 282 283 282 282 281 281 282 281 281 281 279 279 280 281 281 280 279 280 280 280 280 280 280 281 280 279 277 277 275 275 275 275 275 277 276 275 274 272 272 270 268 267 266 266 267 267 268 268 267 264 264 262 262 262 262 261 261 261 261 261 261 262 263 264 267 268 269 270 271 271 272 272 272 273
281 282 281 282 282 282 281 280 280 280 281 282 282 282 282 282 281 281 280 280 281 282 281 280 278 278 279 280 280 280 280 281 281 280 279 278 279 278 278 276 275 275 276 276 276 276 276 275 274 273 272 271 268 266 266 265 265 266 266 267 267 267 265 264 263 262 262 262 261 261 261 261 261 261 261 262 263 265 266 268 268 270 270 271 271 272 272
281 280 279 279 279 280 279 280 280 279 278 280 281 281 282 281 282 280 280 281 281 281 281 281 280 279 278 279 279 280 279 280 280 279 278 277 277 276 275 275 276 276 277 277 277 275 274 273 272 271 270 270 267 266 264 264 264 265 265 266 267 267 266 264 263 263 262 262 262 262 262 262 261 261 261 262 262 263 263 264 264 265 267 268 269 269 269
280 280 279 279 279 279 279 280 282 282 281 279 280 281 282 281 279 280 280 279 279 279 279 280 281 280 278 278 278 279 279 279 278 277 277 277 276 277 277 277 277 276 275 275 274 273 271 271 269 269 269 268 265 264 263 263 263 264 264 264 265 264 262 263 264 264 263 264 263 263 262 261 260 260 260 260 260 259 260 261 263 264 263 264 266 266 265
280 279 282 280 279 281 281 281 282 282 281 279 279 279 279 278 276 276 276 277 277 276 276 276 276 275 276 277 276 276 276 275 276 277 276 276 277 277 276 275 274 273 272 271 271 270 268 269 268 268 268 264 263 263 262 262 262 263 263 263 264 265 264 262 263 264 264 263 263 263 262 261 260 260 260 260 259 260 259 259 259 259 260 261 261 263 264
280 279 280 282 283 283 281 279 279 279 279 279 278 278 277 275 276 276 277 278 279 279 278 278 276 275 277 278 276 276 276 276 276 275 276 277 275 274 273 271 269 267 268 268 268 266 266 266 266 266 265 260 261 261 261 261 262 262 262 263 263 264 264 263 262 263 263 262 262 262 261 260 260 259 259 259 259 260 259 259 259 259 260 260 260 260 262
279 279 279 279 280 280 279 279 280 280 279 277 277 276 277 277 277 278 278 279 279 277 279 280 277 276 275 275 275 275 275 276 277 277 276 275 272 269 267 265 264 264 264 264 264 263 263 263 263 264 263 259 260 260 260 260 261 262 262 262 263 263 263 262 262 261 261 260 260 260 260 260 260 260 259 259 259 259 259 259 259 258 258 258 259 259 260
278 278 278 278 278 278 278 279 280 279 279 276 277 277 275 275 277 279 279 280 279 278 278 278 278 277 274 274 275 275 275 275 275 274 269 264 262 262 262 266 270 273 272 269 264 261 261 261 261 262 260 259 259 259 259 260 261 261 261 261 261 261 262 262 262 262 261 260 259 259 259 259 259 259 258 258 258 258 258 258 258 258 258 258 258 258 259
276 275 273 276 276 276 276 276 277 277 278 276 272 274 276 274 273 275 277 277 278 278 278 276 274 275 276 275 273 272 272 272 271 268 264 261 261 260 261 260 260 259 259 260 260 260 261 261 260 258 257 258 258 258 259 260 261 261 261 260 261 261 261 262 262 262 260 259 259 259 259 259 258 258 258 258 258 258 258 258 257 257 257 257 257 258 259
274 273 273 273 271 270 272 275 275 276 276 275 276 278 278 277 277 277 278 278 278 276 276 276 277 276 273 272 271 270 269 266 263 262 261 260 258 257 257 258 258 258 258 258 259 259 260 259 259 257 257 257 257 258 259 260 261 261 261 261 261 261 260 262 261 262 260 259 258 258 258 258 258 258 257 257 258 258 258 257 257 257 257 257 257 258 258
278 279 281 280 279 278 277 277 277 276 277 278 277 277 276 276 276 276 276 276 276 275 275 276 275 271 270 270 268 266 263 265 269 268 262 258 257 256 256 257 257 257 257 258 259 260 260 259 258 259 258 257 257 258 259 259 260 261 260 261 261 260 260 260 261 261 260 258 258 258 258 257 257 257 257 257 257 257 257 256 256 256 256 257 257 257 258
281 281 280 277 277 278 278 279 277 277 276 275 273 272 274 274 273 274 274 273 274 275 273 271 269 269 267 266 265 264 264 268 269 266 261 258 256 255 256 255 256 256 256 256 256 257 256 256 256 258 258 258 258 258 258 259 260 260 260 260 260 260 259 259 259 259 259 259 259 258 258 257 257 257 257 256 256 256 256 256 256 256 256 256 257 257 257
272 273 273 271 270 270 270 270 269 269 270 271 271 270 269 269 269 270 270 270 268 268 268 267 264 262 263 263 264 262 262 261 257 257 257 256 256 257 257 257 256 256 255 255 255 253 254 256 256 257 258 258 258 258 258 258 258 259 258 259 258 258 258 258 258 258 258 258 258 257 257 257 256 256 256 256 256 256 256 255 255 255 256 256 256 256 256
262 266 267 267 263 262 259 257 256 259 262 262 261 262 262 260 258 257 258 260 261 261 260 260 261 262 259 256 256 256 257 258 259 258 257 257 257 257 257 257 257 257 258 258 255 254 255 256 256 256 258 258 258 257 256 256 257 258 257 257 258 257 257 257 257 256 256 256 256 256 255 255 255 255 255 255 255 255 255 255 255 255 255 255 256 255 255
258 257 257 257 256 255 253 252 252 252 257 258 255 254 254 253 254 253 254 255 255 257 258 258 258 256 255 256 255 253 253 254 254 254 254 255 256 256 257 258 258 259 260 258 255 255 256 256 255 256 256 257 256 256 256 255 255 256 257 257 257 256 256 256 256 255 255 255 255 255 255 255 255 255 255 255 255 255 255 255 255 255 255 255 255 255 255
259 258 256 254 254 254 253 252 251 251 251 252 254 254 254 254 253 254 254 254 254 255 256 256 256 256 255 254 253 252 250 250 251 252 253 253 255 256 254 253 253 254 254 254 254 254 254 254 254 255 255 254 255 255 254 255 255 256 256 255 255 255 256 255 255 255 255 255 254 254 254 254 254 254 254 254 254 254 254 254 254 254 254 255 255 255 255
255 255 253 253 252 253 253 252 251 250 251 251 251 252 253 254 254 254 254 254 254 254 256 257 257 256 253 252 251 251 248 248 250 251 251 252 253 253 254 253 252 252 253 253 253 254 253 254 253 254 254 254 254 254 254 254 255 255 255 255 255 255 255 255 255 255 254 254 254 253 254 253 253 253 253 253 254 253 253 253 253 253 254 254 254 254 254
254 254 254 253 252 252 252 252 251 251 250 249 250 250 252 252 253 253 252 251 252 252 253 254 254 253 252 252 250 248 247 248 248 248 250 253 255 257 258 255 254 252 252 253 253 253 253 253 254 254 254 254 254 254 254 253 254 255 255 254 254 254 254 254 254 254 254 254 253 254 254 254 253 253 253 253 253 253 253 253 253 253 253 253 254 254 254
252 252 252 253 252 251 251 251 251 251 250 250 250 250 251 251 252 251 250 250 251 251 251 251 252 251 250 249 248 248 247 247 248 248 249 254 256 258 257 255 254 253 253 253 253 253 253 252 253 253 253 253 253 252 253 254 254 254 254 254 254 254 254 254 254 254 254 254 254 254 253 253 253 253 253 253 253 253 253 253 253 253 253 253 253 253 253
250 250 250 250 250 250 250 250 250 250 250 250 249 249 249 250 250 250 250 251 251 251 250 250 250 250 250 250 250 250 249 248 248 250 252 251 249 249 253 255 253 252 252 253 253 254 253 253 253 253 252 253 253 252 252 254 254 253 253 253 253 253 253 253 253 253 253 253 253 253 252 252 252 252 252 252 253 253 252 252 252 252 253 253 253 253 253
250 250 251 251 251 252 251 251 251 251 251 250 249 248 248 248 249 250 251 251 251 252 251 250 249 249 249 250 251 252 252 253 253 254 255 254 253 252 250 252 252 251 251 252 253 254 254 254 253 252 251 252 253 253 254 255 254 253 252 252 252 252 252 252 252 253 253 253 253 253 253 252 252 252 252 252 252 253 252 252 252 252 252 253 253 253 253
248 249 249 250 250 251 251 251 250 250 250 250 249 248 247 248 248 249 250 251 251 251 252 252 251 251 251 251 252 251 251 251 252 254 256 255 255 254 252 250 251 251 252 252 253 254 254 253 253 252 253 253 254 254 255 255 255 254 254 253 252 252 252 252 253 253 252 252 252 253 253 253 253 253 252 252 252 252 253 252 252 252 253 253 253 253 253
248 248 249 250 249 249 250 250 250 251 251 251 250 249 247 246 247 247 248 249 250 250 251 251 251 251 250 248 247 247 248 249 249 247 251 253 255 254 252 252 252 252 252 253 254 254 254 253 253 254 254 254 254 255 255 255 255 255 254 254 253 252 252 253 252 252 253 252 252 253 253 253 253 253 253 253 253 252 253 253 253 253 254 254 253 253 254
248 248 248 248 248 248 249 249 250 251 251 252 251 251 249 246 247 248 247 246 247 247 248 248 249 250 249 248 251 254 254 254 253 251 249 250 250 251 252 252 252 252 253 253 254 254 254 254 254 254 254 254 254 255 255 255 255 255 255 254 254 254 253 253 253 253 253 253 253 252 252 252 252 253 252 252 252 252 252 252 252 253 253 253 253 253 253
247 247 247 247 247 246 247 248 249 249 250 251 250 249 248 246 247 247 247 247 247 246 247 247 247 245 245 245 245 247 251 254 256 254 252 251 251 249 251 252 252 252 253 253 253 254 254 254 254 254 255 254 255 256 255 255 255 255 255 254 254 253 253 253 253 253 253 253 253 252 253 253 253 253 253 253 253 253 253 253 253 253 253 253 253 253 253
245 246 246 246 246 247 248 249 250 250 250 247 247 249 248 247 249 250 250 249 249 251 251 249 247 247 247 247 248 250 249 249 253 255 253 252 252 254 254 253 253 253 254 254 253 254 253 253 254 254 254 254 256 256 255 255 254 254 254 254 254 254 254 254 254 254 254 253 253 253 253 253 253 253 253 253 253 253 253 253 253 253 253 253 253 253 253
247 247 248 248 248 249 249 251 250 250 249 249 250 250 248 250 254 253 252 252 252 253 253 253 253 252 252 252 251 250 248 248 251 252 252 252 251 252 253 253 253 253 253 254 253 254 254 253 254 254 254 255 255 255 255 255 254 254 254 254 254 254 254 254 253 253 253 253 253 254 253 253 254 253 253 253 253 253 253 253 253 252 252 252 252 252 252
248 248 247 247 247 246 244 247 250 250 250 250 249 251 251 253 253 253 253 252 252 253 253 253 254 253 253 253 253 252 249 248 249 251 253 253 253 253 253 254 254 254 254 255 255 255 256 255 255 254 254 254 255 255 255 254 254 254 254 254 254 254 254 254 254 254 254 254 254 254 254 254 254 253 253 253 253 253 253 252 252 252 252 252 252 252 253
247 248 248 248 248 247 247 246 247 248 248 249 250 251 252 252 252 252 253 253 252 252 252 253 254 253 253 252 253 253 252 251 251 252 253 253 254 255 254 254 255 255 255 254 255 254 254 254 253 253 253 254 255 254 254 253 254 254 254 254 254 254 254 254 254 254 254 254 254 254 254 254 254 253 253 253 253 252 252 252 252 252 252 252 253 253 252
Wind_Speed
10 2 3 3 7 13 14 18 18 17 16 14 20 21 12 14 12 13 10 13 12 11 16 11 9 10 10 9 10 9 5 6 7 8 9 11 13 13 14 15 15 14 13 14 16 15 14 14 14 14 12 11 10 9 10 10 10 11 10 11 11 10 9 9 8 8 7 6 6 6 6 5 5 4 4 3 3 3 2 2 1 1 0 1 1 1 2
10 10 5 4 8 3 4 13 17 18 18 20 19 18 14 15 15 16 6 12 15 7 10 13 12 8 7 5 4 5 7 9 10 10 10 12 13 14 16 17 16 16 15 12 12 13 13 14 15 13 12 11 11 11 12 11 11 10 10 11 11 10 10 9 8 7 7 6 7 6 6 5 5 4 4 4 3 3 3 2 2 1 0 1 1 2 2
11 10 5 4 3 4 5 8 8 14 12 14 20 17 17 15 16 11 8 6 10 4 8 8 3 4 3 4 7 8 7 8 10 10 11 12 13 14 15 14 14 13 12 12 12 12 13 15 15 13 12 12 12 14 13 12 12 11 11 11 11 10 11 8 8 8 7 7 7 7 6 5 4 4 4 3 3 3 3 2 2 1 1 2 2 1 2
9 4 8 4 0 1 5 10 15 9 11 11 12 10 11 8 13 11 7 10 11 6 8 5 5 6 8 10 9 7 6 8 9 10 11 12 12 12 13 13 12 10 11 12 14 15 15 15 16 14 14 14 13 14 13 12 11 10 11 11 11 11 10 8 8 8 7 7 7 6 6 5 5 4 4 4 3 3 3 3 2 2 2 2 2 2 2
10 1 5 8 4 1 6 22 18 12 16 12 8 8 7 14 13 11 12 16 6 5 8 8 6 8 9 7 7 6 5 7 9 10 11 10 9 11 11 10 11 12 14 15 15 14 14 15 16 16 15 11 12 14 14 13 9 10 11 11 10 10 9 9 9 8 7 7 6 6 5 5 5 4 4 4 4 4 4 3 2 3 3 2 3 2 3
3 1 4 6 7 10 14 3 2 20 19 18 14 15 14 14 12 10 8 7 2 7 9 11 9 10 11 9 7 5 7 9 9 8 7 7 8 8 8 10 12 12 10 10 11 14 14 14 15 15 15 17 17 14 11 9 11 10 11 10 10 9 8 9 8 8 8 6 6 6 5 5 5 5 4 4 4 3 3 3 3 3 3 3 3 3 3
3 3 6 6 11 17 1 4 5 4 10 13 16 15 18 19 16 10 4 4 8 9 12 12 10 5 4 4 3 6 4 5 7 9 9 9 8 8 8 9 10 11 13 13 13 14 15 15 14 10 12 12 8 7 9 10 10 10 10 10 9 9 9 8 7 7 8 7 6 6 5 5 5 5 5 4 4 4 4 4 4 4 3 3 3 3 3
4 3 7 6 8 2 2 2 3 1 3 5 11 13 14 13 16 15 14 11 6 6 7 3 5 4 2 2 2 4 4 5 6 8 8 9 8 9 9 10 11 11 12 13 14 14 11 9 9 10 11 10 9 9 8 9 9 9 9 9 9 8 8 8 9 9 8 7 6 6 6 6 5 5 5 5 5 4 3 3 3 3 2 3 3 4 3
6 4 10 6 7 10 5 5 5 8 8 10 11 10 12 13 10 11 12 11 6 5 4 5 4 3 2 2 6 6 7 8 8 9 7 7 9 9 8 8 7 7 7 8 8 6 7 9 9 10 9 8 8 8 8 7 7 7 8 8 9 10 9 10 10 9 9 8 7 7 6 6 6 6 6 5 5 4 4 4 4 4 3 3 3 3 4
5 4 3 1 3 10 7 3 4 7 2 5 4 2 4 1 5 8 10 10 9 6 4 5 5 4 1 5 6 7 9 9 10 5 1 2 3 4 4 4 3 4 5 4 4 6 7 8 9 8 8 9 9 8 9 9 8 9 8 10 10 9 11 10 10 9 9 8 8 7 7 7 7 6 5 4 5 5 4 4 4 4 3 3 4 4 5
4 5 7 5 6 6 1 1 1 1 1 7 5 3 5 2 8 10 13 13 6 9 10 6 6 4 5 7 5 4 5 6 6 7 6 4 4 4 5 6 6 6 6 6 6 6 7 8 9 8 9 10 9 8 9 9 9 9 10 11 11 12 11 11 10 9 7 8 8 7 7 7 6 6 6 5 4 4 3 3 3 3 3 3 3 4 4
5 6 5 8 3 4 1 2 0 1 3 3 4 2 4 5 8 5 6 8 6 7 10 10 8 6 6 8 2 5 5 6 7 8 7 6 4 4 4 3 4 6 7 7 6 8 9 9 8 9 8 9 11 11 9 8 8 10 12 13 13 10 8 9 8 7 7 8 8 9 8 6 5 5 5 4 5 4 4 3 3 3 3 3 3 4 4
9 11 8 3 5 2 1 4 3 3 2 1 7 7 2 3 5 6 7 6 6 9 9 8 6 10 3 3 4 3 5 5 3 2 1 2 2 4 4 5 6 6 6 7 8 9 7 7 8 9 7 8 9 9 9 8 11 13 13 10 8 9 8 8 8 8 7 8 11 7 6 6 6 5 5 5 5 4 4 3 3 2 3 3 3 4 4
9 8 7 8 5 1 4 2 4 3 4 5 7 1 1 9 7 6 6 5 6 9 11 9 8 3 5 3 4 5 6 6 5 6 4 2 2 3 2 4 5 4 4 4 3 3 5 7 8 7 7 11 9 9 8 11 14 13 9 8 8 7 7 8 8 8 9 7 7 7 6 6 6 6 5 4 4 4 3 3 3 3 3 3 3 3 4
2 1 8 2 9 2 7 10 5 4 5 1 6 4 2 1 7 9 6 6 7 9 8 8 5 5 4 4 5 5 5 4 5 7 7 6 6 6 5 4 5 5 5 6 7 7 5 7 8 8 11 12 10 11 10 16 13 8 8 7 8 7 9 11 13 13 12 13 9 6 6 6 6 6 5 4 4 3 3 3 3 3 4 4 3 4 3
5 8 8 7 1 7 11 15 9 7 5 3 8 8 5 1 3 5 5 5 7 9 7 9 5 4 4 2 2 3 3 3 2 3 3 3 3 3 3 2 6 5 5 4 5 5 5 5 6 7 11 12 11 12 16 13 6 5 7 8 9 11 12 12 13 12 12 10 7 6 7 6 6 5 5 5 4 4 4 3 3 3 3 3 3 3 3
6 3 1 1 1 9 9 3 4 4 5 4 8 6 7 8 5 6 5 8 8 9 6 4 7 6 6 6 6 7 8 6 6 6 7 7 7 6 7 6 5 5 8 7 5 4 5 6 6 9 10 12 12 14 15 7 9 10 11 11 12 12 13 14 14 8 7 7 7 6 6 7 7 6 5 5 4 4 4 4 3 3 3 2 3 3 3
3 3 2 2 2 2 5 3 3 3 5 2 2 5 5 6 5 9 8 7 6 7 5 6 3 6 7 7 5 6 5 6 5 3 1 3 2 2 2 2 8 6 4 3 4 7 5 6 7 8 8 10 13 18 7 7 9 11 12 12 12 13 12 11 9 8 9 6 6 6 6 6 6 5 6 6 5 4 4 4 4 3 4 3 3 3 4
4 3 5 2 1 0 5 4 3 2 2 3 3 2 4 5 5 6 3 3 6 7 8 8 7 7 6 6 6 7 5 6 6 7 9 7 8 9 10 10 7 6 7 7 9 9 10 8 8 8 10 10 13 4 5 7 9 10 11 13 13 12 12 8 7 7 9 8 7 6 6 5 5 5 5 5 5 4 4 4 4 4 4 4 4 4 4
3 1 4 2 2 3 3 3 4 4 4 3 3 0 1 1 2 2 4 5 5 6 5 9 7 7 5 6 6 6 7 7 6 6 8 8 6 8 8 5 8 6 8 10 11 10 11 8 9 9 10 12 12 8 5 8 10 10 11 12 12 15 15 8 8 8 8 10 9 7 7 8 7 6 5 6 6 6 6 5 5 4 4 4 5 4 3
2 3 1 3 1 2 5 5 7 4 3 5 4 3 2 2 5 3 2 2 3 7 6 6 6 7 7 8 8 7 6 6 6 7 7 7 7 6 6 7 8 10 10 11 12 11 12 7 9 11 13 12 10 10 8 9 10 13 12 12 10 11 9 6 7 7 7 7 8 7 7 7 6 6 6 7 6 4 4 2 3 4 4 5 4 3 3
3 5 6 8 4 1 5 7 10 9 7 5 4 3 4 4 5 4 6 5 2 2 1 4 7 7 8 8 7 10 8 8 8 6 7 5 6 6 5 3 7 8 8 11 11 12 11 5 8 11 12 11 9 10 8 10 11 12 11 9 9 9 7 7 6 7 7 7 6 6 5 6 5 4 6 8 6 5 4 8 13 13 10 6 5 4 5
2 4 6 8 3 2 4 8 8 7 6 7 7 7 8 8 7 6 7 7 4 5 8 6 9 11 9 10 8 8 6 8 9 9 11 9 9 9 5 6 7 9 10 10 9 10 10 7 9 9 9 9 9 10 11 11 12 11 10 8 7 6 7 8 8 7 6 5 5 5 4 4 4 4 3 5 13 15 13 10 11 13 15 17 16 16 10
2 3 9 8 5 5 4 4 6 5 7 9 10 8 6 5 6 7 8 9 10 10 6 7 8 9 8 6 6 7 10 9 9 9 10 9 9 7 4 7 8 9 8 8 11 15 9 7 8 8 9 8 9 10 11 10 10 10 11 9 8 8 8 6 6 7 6 5 5 5 4 4 4 4 4 3 4 11 16 15 15 15 16 16 17 16 17
4 4 7 10 9 5 2 2 2 1 2 8 7 9 9 9 8 9 10 8 7 8 7 9 8 8 8 7 7 8 9 10 9 11 10 9 8 6 6 6 8 9 11 11 9 8 6 7 7 7 8 8 6 8 10 10 11 11 11 10 8 5 5 6 6 6 6 6 6 6 6 6 5 4 4 4 4 2 5 10 11 12 12 14 14 14 14
5 5 4 3 1 2 2 2 3 4 4 6 6 4 6 6 7 7 9 10 8 8 9 7 7 9 9 10 9 10 8 10 9 4 4 5 5 5 7 10 13 10 9 8 8 8 7 7 8 7 8 7 7 8 8 9 11 11 10 10 9 6 6 7 7 7 7 6 6 6 5 5 4 4 4 4 3 2 2 2 4 7 11 13 11 8 8
2 7 9 3 1 4 5 8 7 6 9 7 9 9 5 2 4 5 3 4 5 5 7 10 9 6 4 7 7 6 8 9 3 5 6 7 8 10 10 8 6 6 6 6 6 7 7 6 6 7 9 4 5 7 8 9 10 9 9 8 4 5 9 8 5 5 5 5 5 5 4 5 5 5 4 3 3 4 3 4 4 3 2 3 6 6 5
6 7 8 6 6 8 8 10 9 4 5 8 8 8 3 3 3 3 4 5 5 5 7 6 5 5 7 6 6 8 5 6 9 6 5 9 10 7 3 3 3 4 5 6 7 5 5 5 6 7 5 2 5 7 8 9 9 10 7 6 5 5 5 7 5 4 4 4 4 5 5 5 4 4 4 5 4 4 4 4 4 4 4 3 2 3 7
7 7 6 7 8 3 4 3 2 4 5 3 3 1 2 3 5 6 7 10 10 6 8 6 6 7 6 5 4 7 7 6 7 9 11 8 2 2 2 2 1 1 3 4 3 2 3 4 5 5 1 3 4 7 8 9 7 7 6 6 6 5 5 5 5 4 3 3 3 4 4 4 4 4 4 4 3 4 3 4 4 4 4 4 3 4 5
5 5 6 8 8 4 3 4 7 7 5 5 6 5 6 8 7 7 10 10 6 9 11 8 3 5 6 6 6 7 9 11 12 9 5 2 1 0 1 2 2 1 0 3 4 2 3 2 3 4 2 3 4 6 8 6 4 5 6 5 4 4 4 5 4 4 4 4 4 5 4 4 4 4 4 4 5 4 4 4 5 4 4 4 4 4 3
7 6 6 8 7 4 7 9 9 5 3 4 8 6 6 5 8 10 10 9 7 8 8 7 6 5 4 8 9 8 6 5 4 3 0 0 1 1 1 3 4 4 2 1 2 3 3 3 2 1 2 3 4 5 6 5 5 5 5 4 4 4 6 8 6 5 4 5 4 5 4 5 5 4 3 3 4 4 4 4 4 5 4 4 5 5 5
5 6 5 4 3 3 6 5 5 7 6 3 3 6 8 8 9 12 11 7 8 9 8 6 5 8 9 6 4 4 5 5 5 3 1 1 2 2 1 1 1 1 2 2 1 2 2 2 2 1 2 3 4 4 5 5 5 6 5 5 4 4 6 9 5 5 4 3 4 4 4 4 4 4 4 4 4 4 4 4 5 5 5 5 5 6 4
6 2 4 4 2 2 6 6 6 9 6 6 10 10 7 6 7 8 9 7 5 5 5 7 7 7 4 3 4 5 5 2 1 2 3 3 2 2 2 2 3 4 4 3 2 2 2 2 3 2 2 3 3 4 4 5 5 4 4 4 4 4 4 6 5 4 4 4 4 4 4 4 3 3 4 3 4 3 4 5 5 5 6 5 6 5 4
9 9 9 7 8 8 8 10 7 8 6 6 5 5 5 6 8 8 8 6 5 5 7 8 6 2 3 4 4 3 4 2 3 5 5 4 3 3 3 3 4 5 4 4 4 3 3 3 3 3 3 3 3 3 4 4 4 3 3 4 4 4 4 4 5 5 4 3 3 4 4 3 3 4 3 3 4 4 4 5 5 5 5 5 5 5 6
5 7 1 2 1 4 4 5 4 4 5 5 4 5 6 5 5 7 6 5 6 5 3 2 2 2 3 3 3 4 5 7 3 0 3 5 5 5 3 6 7 6 6 5 4 4 4 3 3 3 3 3 3 3 3 3 3 3 3 3 3 3 3 2 3 4 3 3 3 3 4 4 4 4 4 3 4 4 6 7 7 7 6 5 5 4 5
3 2 2 1 1 1 1 1 1 0 2 3 2 2 4 4 4 4 5 3 4 4 3 1 0 1 1 1 1 0 1 1 2 3 5 5 4 4 4 6 7 8 7 5 4 3 3 2 4 3 2 2 3 3 2 2 2 2 2 2 3 2 2 2 2 2 2 2 3 3 3 3 3 2 3 4 6 7 7 8 7 7 8 6 5 5 4
8 6 4 3 3 4 5 6 5 3 2 2 2 2 2 4 4 4 3 4 4 3 2 0 1 2 3 4 5 6 4 3 2 3 4 4 4 4 4 5 4 4 3 3 3 3 2 2 2 2 1 2 2 2 2 3 2 2 3 3 3 3 3 3 3 3 3 2 2 2 1 1 3 3 4 6 6 6 7 7 7 8 7 6 5 5 4
7 9 7 5 4 7 7 4 4 4 1 5 5 4 3 3 3 3 5 6 5 3 3 4 5 6 6 5 7 7 5 5 5 6 6 5 4 7 4 3 2 1 1 2 2 1 3 4 4 2 2 2 1 2 2 3 3 2 1 1 2 1 2 1 2 2 2 2 2 2 2 3 3 4 4 5 6 7 7 7 6 6 5 5 5 5 5
9 5 8 5 4 4 4 5 6 8 9 5 4 4 4 3 2 3 6 6 5 3 4 6 6 8 8 8 6 6 7 5 5 6 6 5 3 5 4 3 3 3 3 3 2 2 1 2 2 1 2 2 2 2 1 2 3 1 1 1 1 1 1 1 1 1 1 1 2 2 3 3 4 4 4 4 4 6 7 8 8 7 7 5 5 5 5
5 6 7 5 8 5 6 6 6 7 5 5 6 5 5 5 4 6 6 7 6 5 3 3 5 7 7 9 9 7 4 4 3 5 6 6 7 8 5 4 3 2 2 1 1 1 2 3 2 2 2 1 1 0 1 1 2 1 2 1 2 1 2 2 2 2 2 2 3 4 4 4 4 4 5 5 6 6 6 5 6 7 7 5 5 5 4
4 4 4 4 4 4 4 4 5 5 4 6 6 4 4 3 3 7 6 5 4 4 5 3 8 7 6 7 9 8 4 3 4 4 2 4 5 2 3 3 2 2 1 2 1 2 2 2 2 1 1 1 1 1 0 1 1 1 1 1 1 2 2 3 3 4 3 3 3 3 3 3 3 5 5 6 6 6 6 5 5 5 5 5 5 4 4
5 5 4 5 5 4 4 3 3 4 5 5 6 6 6 5 4 7 4 3 4 6 7 7 6 9 8 8 6 7 6 5 5 5 4 1 1 1 3 2 2 1 3 2 2 2 1 2 1 2 1 1 0 1 0 0 0 1 1 2 2 2 3 3 4 4 3 2 3 4 3 3 5 6 6 6 6 6 6 4 4 5 5 5 5 5 4
5 5 5 4 4 4 4 4 6 7 6 6 5 6 7 5 6 5 5 6 6 6 9 8 7 7 7 7 8 9 6 3 4 4 4 4 3 4 2 3 2 1 2 1 1 1 1 1 1 0 1 1 1 0 1 1 1 1 1 1 1 2 2 3 2 2 3 4 4 5 5 5 5 6 6 7 7 6 5 4 5 5 5 4 4 4 4
4 3 3 4 4 3 4 4 5 5 7 6 5 5 7 8 7 6 6 6 6 6 6 6 6 6 5 3 3 3 2 2 2 1 4 3 3 3 2 1 1 1 3 1 1 1 1 1 0 1 2 3 2 2 1 1 1 2 1 1 1 1 2 2 2 3 4 4 5 5 5 5 6 6 6 6 7 7 5 4 5 5 5 4 5 5 5
4 3 4 4 4 5 4 4 7 7 4 3 4 7 9 8 7 6 6 6 7 5 5 5 4 3 3 2 3 2 2 1 1 1 1 2 2 1 1 0 0 0 1 2 1 0 0 0 1 3 3 3 2 2 1 2 2 2 2 2 1 1 2 2 3 3 4 5 5 5 5 6 6 6 6 7 7 7 7 6 5 5 5 5 5 5 5
3 3 2 4 7 6 4 5 4 5 5 7 9 7 7 6 6 5 5 6 6 5 4 4 5 6 6 6 3 3 1 0 0 0 1 1 1 1 1 1 0 1 2 2 1 1 0 2 3 3 3 3 3 2 2 2 2 2 3 3 3 2 4 4 4 4 5 5 5 5 5 6 6 6 7 6 7 7 6 6 7 7 7 7 6 5 5
2 4 5 4 5 3 3 2 3 4 4 6 8 5 3 5 4 3 3 4 5 5 4 4 4 3 3 1 1 1 2 2 2 1 0 1 0 1 0 2 2 2 2 1 1 1 1 2 2 3 4 4 4 3 3 3 3 3 4 4 4 4 4 5 5 5 5 5 5 6 6 6 6 6 6 6 6 6 6 6 6 7 6 6 8 7 7
2 4 3 2 3 3 3 3 4 4 5 6 4 3 1 1 3 3 2 3 4 3 3 2 1 1 1 0 1 0 1 1 2 1 1 0 0 0 0 0 1 2 3 3 3 3 3 5 5 5 5 5 3 3 3 3 3 4 4 4 4 5 5 5 5 5 6 6 5 5 5 5 5 5 5 6 6 6 6 6 6 6 7 6 6 6 7
4 3 3 4 4 5 5 4 4 4 3 1 2 2 0 1 3 4 3 4 5 4 3 2 2 1 0 1 1 0 1 1 0 1 0 0 0 1 1 2 3 3 2 1 2 2 2 4 4 5 5 5 3 3 3 3 3 3 4 5 5 5 5 5 6 6 5 6 6 6 5 5 5 5 6 6 6 7 6 6 7 6 6 6 6 6 7
2 3 4 4 3 3 2 3 3 2 1 1 1 0 0 0 2 1 0 1 1 1 1 1 1 1 1 1 0 0 0 0 0 0 1 1 1 2 2 2 2 3 3 2 1 2 3 4 4 4 3 3 3 3 3 4 3 4 4 4 5 5 6 6 7 7 6 6 6 6 5 5 5 6 6 6 6 6 6 7 7 7 8 7 7 7 6
3 4 2 2 2 2 2 2 1 1 1 0 0 0 0 1 2 2 1 1 1 1 1 1 1 1 1 1 1 1 0 0 0 1 1 1 1 2 2 2 2 2 2 2 2 3 3 2 2 2 3 3 3 3 3 3 4 4 5 5 5 5 5 5 5 5 6 5 5 6 5 5 5 5 6 6 7 7 7 6 7 7 6 6 7 7 7
4 3 3 3 3 3 3 3 2 1 0 0 0 0 1 1 2 2 2 4 2 1 1 0 1 0 1 0 0 1 0 0 0 0 1 1 1 1 2 3 2 2 2 2 3 2 3 3 4 4 4 4 3 4 5 5 5 5 5 5 6 6 6 5 5 6 6 6 6 6 6 6 5 5 6 6 7 7 7 7 7 7 7 7 7 8 7
Wind_Direction
250 35 283 253 217 204 204 206 204 197 192 187 199 216 207 155 200 230 121 173 210 203 179 191 188 182 198 198 210 204 182 160 163 168 177 189 197 200 200 204 204 204 198 197 195 190 186 181 183 186 188 192 190 189 191 190 185 186 175 177 181 179 181 182 177 164 151 146 150 156 161 163 165 159 149 142 142 140 145 142 127 143 240 239 274 271 275
233 228 193 198 215 200 243 213 208 206 194 197 202 214 206 198 227 234 197 195 222 199 157 179 200 185 179 182 119 118 168 184 173 177 187 195 200 200 202 205 204 203 203 195 189 187 183 183 185 186 189 189 187 189 196 192 184 182 171 184 180 181 186 187 170 160 153 150 161 162 166 172 168 155 152 155 156 152 150 138 139 142 212 252 258 271 282
232 211 165 167 182 202 230 238 224 216 208 198 204 212 214 222 239 230 122 214 245 154 142 170 92 115 100 106 181 187 176 160 168 179 192 200 205 206 208 208 207 204 197 189 181 181 188 190 190 184 189 187 192 198 197 193 186 180 175 181 182 182 190 181 164 157 156 163 162 170 172 169 159 155 159 163 160 152 149 146 167 176 218 226 239 258 261
229 187 186 199 88 17 260 260 234 163 155 173 211 210 209 181 222 234 244 250 246 140 162 104 134 155 174 194 190 174 179 175 171 187 200 206 208 207 208 209 202 193 192 193 193 194 194 195 193 190 191 193 193 199 197 193 184 168 176 181 182 186 187 168 167 165 166 161 166 168 166 167 160 157 155 165 168 160 157 165 180 178 219 222 248 244 254
217 87 189 185 125 142 283 240 223 169 194 199 181 217 203 209 202 206 216 235 239 163 155 148 180 187 197 199 168 183 181 181 186 196 203 208 209 209 209 200 196 197 198 199 197 195 194 194 195 197 192 184 196 200 194 190 161 166 180 180 181 185 178 171 171 170 165 165 166 166 172 162 155 151 162 176 173 167 174 167 177 195 204 221 232 238 250
173 41 145 143 159 209 229 347 192 184 196 194 192 210 207 217 202 217 227 246 146 139 160 173 182 192 206 194 190 167 172 177 196 210 209 206 207 208 204 204 203 203 199 196 196 195 194 195 196 199 192 196 202 193 179 154 165 176 177 178 180 181 169 175 171 169 167 162 167 169 163 159 157 164 173 191 178 173 162 178 189 197 205 220 230 240 250
164 138 139 169 209 228 69 281 346 326 199 183 203 221 218 218 215 225 277 181 182 185 173 185 197 189 66 42 159 197 208 188 178 190 202 206 197 194 195 202 204 201 200 199 200 202 204 203 200 187 190 203 187 164 162 168 174 169 177 172 178 175 172 175 168 169 168 171 170 162 161 162 166 175 184 185 178 183 180 186 184 196 200 210 226 243 251
62 140 181 192 220 51 135 69 10 67 74 203 206 234 240 231 218 211 220 221 186 144 165 69 47 89 71 17 235 224 207 195 182 186 202 196 184 192 198 194 200 197 196 198 198 204 202 191 193 192 198 188 175 176 160 168 168 173 171 173 176 167 171 176 176 176 170 171 167 164 163 168 172 185 190 191 189 181 177 183 185 190 208 210 230 239 250
167 192 200 247 356 313 203 134 188 170 160 167 174 212 233 218 194 196 208 220 165 138 91 105 96 78 73 288 267 198 198 189 205 202 198 174 185 194 196 194 196 194 190 193 198 182 178 190 191 196 186 164 164 150 160 173 165 173 170 176 179 178 179 179 179 177 175 169 168 166 167 169 182 190 187 190 191 177 179 188 185 193 199 211 224 238 245
136 140 187 259 240 239 259 146 162 181 346 151 162 172 260 50 197 177 186 212 207 139 105 123 121 134 176 261 257 176 188 184 199 205 115 128 161 162 142 151 147 166 179 171 168 179 185 191 194 181 162 161 160 160 171 167 169 176 177 188 181 175 186 181 178 174 177 168 163 168 168 183 183 189 188 190 184 186 185 179 190 190 203 214 226 230 238
132 210 223 231 231 245 59 147 141 49 74 119 114 96 259 174 182 184 184 207 196 151 148 149 156 149 221 241 244 126 166 183 187 185 205 179 168 164 171 164 162 163 166 167 167 172 176 186 187 164 155 154 152 170 171 171 174 174 190 192 182 186 189 177 175 172 167 167 170 165 174 184 175 182 184 190 178 175 186 177 186 191 204 221 229 246 238
200 208 231 232 213 270 9 227 208 191 177 211 97 243 266 155 201 175 173 200 177 149 154 153 171 174 216 232 221 139 170 176 173 188 187 183 189 204 168 141 135 144 139 135 153 173 187 190 159 154 152 163 176 175 172 162 174 192 199 197 192 182 165 160 167 164 169 166 170 168 173 170 171 183 178 174 181 183 177 183 180 189 206 218 228 254 259
215 217 235 267 273 234 153 167 170 122 231 161 173 223 119 161 168 175 185 203 155 148 148 169 173 220 207 59 81 116 117 118 173 205 174 166 179 180 166 158 143 149 167 175 179 184 185 161 153 160 159 157 175 182 165 173 197 205 203 188 164 166 162 160 166 166 168 175 164 171 167 164 170 176 187 185 171 178 178 184 176 195 210 235 237 248 252
224 219 226 233 270 191 137 37 102 213 129 180 195 144 321 140 181 201 201 161 158 162 175 187 209 106 89 94 79 136 173 176 164 158 160 135 109 63 76 139 163 156 168 188 175 173 170 154 154 159 160 174 184 172 172 198 209 208 184 162 159 160 162 171 166 162 166 165 164 154 151 158 171 181 185 174 173 175 188 173 178 204 216 230 236 247 252
46 143 238 209 241 151 124 120 66 281 166 253 101 114 56 89 177 160 201 187 181 176 192 207 181 103 148 155 166 166 172 167 165 164 172 182 180 170 154 166 202 172 168 192 205 195 160 155 165 165 173 184 189 183 191 212 209 180 158 157 162 165 163 167 171 172 164 160 161 152 159 175 167 174 163 169 177 173 177 176 190 209 222 223 229 242 244
184 191 211 216 286 129 175 148 171 184 188 152 146 133 162 164 166 179 172 210 190 194 182 184 171 136 154 225 171 167 189 205 143 147 177 166 161 175 198 170 170 178 197 202 204 181 160 166 172 172 179 191 190 191 212 217 162 141 156 160 149 167 179 178 159 169 169 159 149 161 165 166 176 171 174 169 176 193 182 191 199 208 224 204 223 233 240
181 213 216 36 298 150 175 78 0 114 140 139 164 146 158 152 209 192 188 190 191 205 191 151 152 162 200 200 192 183 197 194 196 188 190 187 190 186 183 188 169 183 200 202 200 186 179 175 182 184 195 193 195 205 223 177 169 171 166 162 170 178 178 174 173 161 152 169 164 165 166 167 172 179 171 170 189 190 181 200 203 217 228 208 225 239 244
88 36 114 46 48 192 175 79 15 92 127 102 104 148 126 214 163 172 183 183 169 183 177 136 172 197 195 191 205 225 226 206 213 197 136 210 201 183 150 172 185 196 199 199 197 210 202 185 191 194 199 200 198 219 190 164 171 152 159 166 178 189 184 173 172 151 158 161 164 169 173 184 190 188 175 180 198 183 186 196 193 207 227 216 222 228 236
138 231 110 122 109 322 221 188 104 31 47 153 161 232 172 162 157 186 293 139 170 167 164 190 185 197 186 191 205 205 213 212 210 194 203 204 190 179 192 208 172 169 180 205 217 217 221 194 194 198 202 212 221 213 150 156 150 163 170 177 184 173 171 171 162 164 171 174 171 172 182 187 195 196 191 187 189 192 195 198 197 203 211 212 224 223 228
199 242 121 183 297 267 286 239 200 216 170 172 190 225 26 69 126 165 129 107 110 140 176 205 196 210 182 188 213 203 211 215 207 206 211 211 194 211 207 171 179 179 188 207 218 216 226 211 188 193 201 216 221 208 160 153 160 164 176 185 186 181 173 164 172 177 184 176 173 177 185 185 186 190 195 194 193 197 192 191 189 206 198 213 218 218 221
114 49 303 258 274 186 194 200 245 232 166 169 182 172 128 102 127 141 153 246 165 179 195 173 188 206 212 203 211 207 210 209 218 220 216 214 220 207 180 194 184 196 201 209 218 215 227 203 183 201 213 219 215 201 180 149 164 169 186 194 196 180 167 166 180 178 185 172 189 181 176 187 208 198 184 187 198 214 215 198 206 209 216 223 220 216 215
199 182 177 173 126 213 191 208 215 214 188 164 144 143 175 192 181 169 167 208 200 231 251 173 182 199 220 211 203 217 216 209 211 218 223 221 221 229 219 178 199 216 217 213 217 222 231 196 198 205 214 214 205 189 172 164 166 181 189 172 182 182 177 184 177 171 190 188 188 186 177 185 188 227 236 219 208 201 217 214 225 232 227 227 214 202 212
196 197 161 186 151 160 202 198 209 180 151 161 177 195 199 205 198 175 172 186 201 222 230 214 193 208 209 214 185 220 233 226 218 212 205 209 219 228 200 205 219 216 222 221 229 237 236 214 211 212 214 211 196 184 171 164 179 190 179 179 190 185 172 196 186 179 176 176 177 184 184 180 183 195 205 223 227 227 225 225 228 231 235 239 240 235 221
44 180 171 179 152 177 204 186 220 189 162 166 198 224 213 198 181 185 201 203 195 217 214 204 214 221 222 217 180 218 237 236 222 221 227 226 222 217 198 212 222 222 229 225 224 231 230 217 218 214 218 211 198 186 179 180 183 188 189 186 192 193 184 183 159 180 185 171 166 178 187 183 186 186 205 226 226 222 227 234 237 241 244 247 249 253 253
188 173 178 180 188 167 57 145 183 49 126 171 190 220 212 200 194 177 194 212 219 215 210 208 210 214 221 233 202 217 227 236 220 220 227 229 235 228 222 216 225 219 221 217 225 238 239 225 222 219 220 217 180 172 178 179 180 194 198 202 204 175 162 165 177 166 175 177 185 182 180 179 183 187 196 203 223 205 188 210 236 248 252 251 255 257 255
150 142 103 78 48 111 99 67 297 211 204 186 205 252 242 221 207 177 207 211 212 204 214 223 207 204 204 218 220 221 237 245 238 213 210 214 228 223 227 223 225 221 228 231 229 228 227 224 221 217 226 215 183 183 175 178 187 199 200 204 208 195 179 172 172 180 186 189 183 186 183 178 179 178 197 200 204 196 218 234 213 234 246 255 256 256 259
72 127 111 81 271 231 175 178 220 190 176 181 195 215 217 151 191 205 248 241 244 219 213 221 224 211 204 226 233 230 224 243 246 219 217 229 228 225 229 231 234 235 235 239 240 233 227 223 220 221 232 210 165 163 168 176 184 195 199 196 189 189 180 177 185 184 183 186 182 173 168 176 175 180 193 193 189 190 202 217 241 235 210 221 230 246 265
166 182 163 178 205 214 193 207 230 210 145 181 202 227 180 116 130 182 237 253 252 239 233 231 221 214 224 220 201 236 236 238 238 231 221 228 233 238 248 252 239 231 231 231 241 231 222 224 225 232 232 111 147 144 160 171 181 177 176 173 176 179 164 178 185 188 181 181 177 175 175 178 171 178 178 181 183 196 196 209 225 246 266 247 239 258 271
198 182 232 225 224 206 74 88 126 223 198 181 186 108 137 187 220 220 234 230 231 232 248 239 212 220 227 230 183 223 231 233 238 237 234 238 230 207 216 221 208 239 229 243 251 232 223 229 231 239 214 93 132 138 154 159 174 177 176 175 184 183 166 167 169 180 169 159 166 170 167 150 165 182 189 189 191 191 199 204 215 229 242 272 287 273 234
180 199 208 238 252 269 255 263 239 227 171 165 175 215 215 204 229 238 228 232 225 226 236 243 200 218 211 232 227 221 229 233 236 248 258 170 204 108 139 135 92 57 6 266 238 198 218 229 221 235 184 145 148 145 136 158 174 157 154 165 180 169 159 132 141 145 145 163 160 156 161 173 190 195 188 190 192 196 203 212 215 219 229 239 244 263 261
196 198 207 227 242 243 226 242 252 254 172 175 191 193 204 207 223 239 242 236 233 236 251 239 235 237 207 220 227 228 239 257 262 259 350 64 63 60 120 175 198 238 229 242 154 171 192 189 188 217 87 138 134 144 148 165 162 156 161 167 175 161 153 155 168 163 166 159 163 172 184 185 195 190 194 191 196 207 211 214 218 226 230 231 233 232 239
157 201 216 235 245 245 253 257 259 256 228 168 165 206 205 195 214 231 239 243 237 235 248 254 243 237 234 233 226 217 224 235 243 231 113 83 69 51 54 25 36 56 58 55 78 115 131 126 111 75 109 129 135 144 158 162 161 167 175 167 159 165 177 175 175 182 169 167 163 177 188 186 195 188 200 205 209 212 213 211 220 225 229 229 230 233 234
149 183 257 232 233 269 254 251 232 249 234 203 217 222 221 216 227 237 239 239 250 245 239 251 250 248 246 207 200 209 211 184 131 119 148 131 82 56 37 55 63 69 66 54 70 83 90 99 97 98 115 122 132 146 161 158 165 166 159 153 153 157 157 181 178 173 162 168 188 190 190 194 197 199 212 212 216 217 220 225 231 234 237 232 239 241 226
188 209 223 210 187 207 226 243 225 237 250 229 228 231 231 229 228 241 249 250 255 259 243 245 256 250 206 204 195 173 147 143 224 219 194 160 133 78 46 62 68 70 66 59 64 70 70 87 109 122 118 125 134 145 159 158 166 153 150 146 164 160 164 179 186 191 181 181 189 191 198 195 205 209 215 216 222 225 233 237 236 238 243 244 243 245 245
231 246 353 53 170 226 236 243 235 215 227 233 230 231 238 243 242 244 254 254 248 259 285 287 265 213 180 177 177 181 183 216 252 159 136 127 124 123 117 101 94 77 60 41 38 49 40 26 35 78 91 103 125 140 150 170 160 155 149 158 156 156 156 161 176 189 194 193 179 186 198 202 213 213 216 225 229 232 240 242 245 246 246 247 250 243 242
15 13 35 56 8 335 295 297 27 4 225 241 231 209 221 234 240 249 261 274 360 1 348 351 69 95 100 128 192 222 252 329 64 86 89 109 129 134 123 113 106 92 83 67 41 18 344 35 46 61 81 108 110 125 137 132 115 120 129 144 149 152 157 170 183 194 199 202 201 204 211 208 208 215 213 233 241 239 243 246 244 247 250 250 250 250 250
29 58 67 61 24 42 51 44 18 10 18 22 17 11 1 14 10 335 353 19 13 11 348 33 91 98 92 63 84 73 65 62 89 101 123 126 125 118 109 102 96 115 118 88 34 35 37 56 69 80 69 101 95 108 109 129 145 147 151 160 168 169 173 181 189 193 203 197 208 209 194 203 228 228 228 239 241 245 245 247 249 250 251 245 249 250 252
38 42 34 37 11 47 54 39 24 341 32 98 64 56 25 323 314 347 26 27 5 350 4 48 82 102 109 89 55 49 37 26 50 74 88 96 109 107 97 101 106 131 104 84 108 53 50 52 49 50 59 71 75 79 129 154 141 151 170 167 171 178 180 195 191 199 199 203 191 206 216 226 227 235 230 235 243 245 245 248 246 247 245 244 240 241 245
21 33 45 37 55 67 71 49 37 38 39 56 26 26 8 359 356 26 46 27 359 347 46 86 109 90 70 85 87 56 35 31 59 90 94 86 89 95 69 41 34 23 45 69 81 28 17 7 25 18 45 44 46 64 79 159 169 161 144 138 154 197 209 203 215 215 210 201 200 210 215 231 242 244 246 240 238 249 249 247 250 253 254 247 243 239 236
20 23 8 6 26 23 48 53 46 44 31 27 36 26 336 358 31 56 41 30 6 2 32 92 94 90 92 90 98 84 40 43 75 95 104 106 103 107 109 84 55 15 9 52 40 68 48 47 52 49 53 39 47 56 95 154 179 172 181 192 208 214 226 229 234 238 230 214 237 235 241 241 238 243 249 252 256 253 257 248 245 248 253 250 247 246 243
23 14 15 47 56 56 58 69 65 48 34 21 18 1 354 9 2 53 39 24 352 15 33 76 108 95 98 104 97 102 79 37 56 65 77 120 107 125 116 119 75 63 27 43 59 57 45 37 24 34 37 34 21 56 93 123 158 172 181 184 194 202 211 217 221 230 236 232 224 233 232 232 240 251 252 253 255 257 254 245 240 239 239 242 245 244 243
3 18 43 60 63 58 63 70 100 76 41 32 20 16 17 20 53 79 74 45 43 35 51 43 69 105 111 104 108 104 85 58 55 23 12 25 74 130 113 105 104 62 32 57 44 56 49 43 32 30 3 357 326 25 350 168 177 196 198 201 210 214 223 228 234 241 239 242 247 250 250 249 253 257 259 258 259 260 253 242 244 244 244 240 243 245 246
1 17 31 46 59 54 65 70 66 76 72 39 24 12 12 22 42 56 65 56 63 63 58 65 80 94 107 118 116 94 91 39 63 91 92 59 33 351 21 102 106 26 358 22 25 18 19 14 356 349 333 329 333 321 228 214 175 196 213 210 217 226 235 234 239 243 248 249 247 248 246 248 250 256 258 260 263 261 248 240 241 246 245 243 243 243 244
359 22 48 62 70 80 85 76 79 69 68 42 24 25 25 30 33 43 51 61 61 59 72 68 62 58 62 61 91 90 87 84 89 96 109 95 82 65 39 40 55 341 345 345 9 355 356 354 329 283 270 254 257 239 216 175 163 185 193 207 213 219 228 237 237 246 252 253 253 255 253 250 252 256 254 258 261 264 248 241 245 244 244 246 247 247 247
13 21 26 52 44 64 71 74 79 84 93 113 66 43 23 40 42 40 60 71 73 69 64 70 71 73 73 46 62 40 52 22 49 355 72 90 87 68 106 200 281 132 291 283 301 288 319 290 282 270 265 270 253 221 221 208 218 227 228 225 214 224 238 249 254 256 256 256 257 259 259 258 258 258 258 258 255 256 261 256 247 240 239 244 242 240 239
25 22 36 81 76 77 98 108 110 120 121 105 79 57 36 26 39 39 47 74 81 65 64 67 79 66 84 108 95 64 102 183 195 293 349 351 39 95 113 185 219 225 273 267 266 275 263 263 274 279 273 274 258 243 237 240 240 244 235 243 244 242 246 251 253 253 256 256 255 255 256 259 258 258 258 257 259 257 257 255 261 262 260 258 248 242 247
29 53 52 86 91 93 96 94 106 104 97 85 78 72 23 9 12 34 29 24 61 51 43 35 44 40 35 53 60 106 112 94 62 58 285 287 319 328 225 251 273 282 299 305 325 303 312 305 290 287 283 271 250 248 241 240 235 238 239 242 248 250 252 254 252 254 251 251 247 250 250 250 254 256 256 250 248 247 250 247 248 255 256 258 260 259 256
54 82 66 64 77 55 65 69 78 79 77 89 105 82 34 6 52 52 49 70 72 66 50 26 19 343 356 327 303 305 351 5 106 100 131 143 156 208 230 247 280 285 291 290 280 290 301 299 301 300 299 295 274 254 247 248 246 247 249 250 248 253 255 254 253 250 249 249 242 236 243 247 249 250 251 250 252 248 245 246 249 254 257 253 251 254 255
46 51 43 46 53 59 71 74 83 78 76 41 64 80 51 98 95 70 63 69 83 83 78 68 64 55 187 207 206 210 184 282 318 115 93 96 323 330 325 298 290 293 301 293 299 292 287 287 287 287 296 292 285 281 273 265 257 258 258 256 259 256 253 252 254 253 251 252 250 247 246 244 254 255 256 255 256 257 255 249 250 249 253 256 257 258 256
35 53 46 33 36 51 54 72 73 84 119 141 123 291 272 240 92 62 36 37 78 110 91 68 53 50 45 53 55 132 73 121 306 258 247 235 232 255 278 274 282 276 269 283 286 287 276 265 280 288 289 283 277 273 265 262 259 253 257 259 257 259 254 252 256 249 250 252 251 251 249 247 250 251 258 261 260 258 258 260 263 259 256 256 258 258 258
46 54 54 69 67 83 10 35 63 111 142 108 261 331 321 70 83 68 48 28 30 77 74 89 79 48 23 40 60 65 108 185 242 261 268 276 266 263 258 273 276 266 276 273 274 286 294 290 287 280 268 265 270 265 263 259 261 258 255 255 252 254 260 251 250 250 246 249 253 252 253 253 249 251 254 256 256 259 260 259 261 262 256 253 253 258 259
71 86 86 90 78 65 69 56 41 36 13 14 357 61 59 83 83 60 47 38 47 58 22 104 116 58 38 9 24 1 357 274 219 245 235 244 262 273 266 251 264 265 259 269 280 278 279 287 285 279 280 279 275 272 269 264 256 259 258 254 255 256 253 258 259 260 260 255 252 257 256 253 254 256 256 254 257 259 259 260 258 260 262 265 266 266 265